Hourly Weather Roundup
Issued by NWS Central Illinois

Home | Current Version | Previous Version | Graphics & Text | Print | Product List | Glossary On
Versions: 1 2 3 4 5 6 7 8 9 10 11 12 13 14 15 16 17 18 19 20 21 22 23 24 25 26 27 28 29 30 31 32 33 34 35 36 37 38 39 40 41 42 43 44 45 46 47 48 49 50
000
NZUS43 KILX 270310
HWRILX

AREA WEATHER ROUNDUP
NATIONAL WEATHER SERVICE, LINCOLN IL
900 PM CST FRI DEC 26 2014


CITY           SKY/WX    TMP DP  RH WIND       PRES   REMARKS
BLOOMINGTON    CLOUDY    46  44  93 S13       30.04R
CHAMPAIGN      MOCLDY    46  42  86 S14       30.07R
DECATUR        CLOUDY    49  43  80 S15       30.06R
FLORA          PTCLDY    47  42  81 S9        30.11S
GALESBURG      CLOUDY    47  42  83 SE3       29.97S
JACKSONVILLE   CLOUDY    52  45  76 S13       30.01R
LACON          CLOUDY    47  42  82 S7        30.00S
LAWRENCEVILLE  CLOUDY    48  42  80 S10       30.13R
LITCHFIELD     CLOUDY    46  42  84 S16       30.05S
$$


CITY           SKY/WX    TMP DP  RH WIND       PRES   REMARKS
LINCOLN        PTCLDY    48  43  84 S14       30.02F
MACOMB         MOCLDY    45  42  87 SE8       29.98F
MATTOON        CLOUDY    49  43  80 S10       30.07S
MT CARMEL AP   MOCLDY    50  41  71 S12       30.13S
OLNEY-NOBLE AP MOCLDY    46  41  81 S7        30.11S
PARIS          CLOUDY    49  44  85 S12       30.10S
PEORIA         CLEAR     48  42  80 S10       30.00S
PONTIAC        CLOUDY    44  43  95 SE7       30.03F
RANTOUL        PTCLDY    43  42  94 S8        30.07R
ROBINSON       CLOUDY    47  42  81 S8        30.14R
SPRINGFIELD    PTCLDY    49  42  77 S18       30.03S
TAYLORVILLE    CLOUDY    46  43  87 S14G22    30.05S
$$

...REGIONAL REPORTS...


CITY           SKY/WX    TMP DP  RH WIND       PRES   REMARKS
CHICAGO O`HARE CLOUDY    47  41  80 S7        30.03R
KANKAKEE       PTCLDY    44  41  91 S6        30.06R
MOLINE         CLOUDY    45  39  79 E6        29.96F
MOUNT VERNON   CLOUDY    50  39  66 S8        30.12R
PITTSFIELD     CLOUDY    54  46  73 S13G20    29.99S
QUINCY         CLOUDY    52  44  74 S13       29.96S
ROCKFORD       CLOUDY    42  37  82 S3        30.02S
$$


CITY           SKY/WX    TMP DP  RH WIND       PRES   REMARKS
BURLINGTON     CLOUDY    49  42  77 E6        29.94S
CEDAR RAPIDS   CLOUDY    39  35  86 CALM      29.95F
DES MOINES     CLOUDY    35  32  88 N3        29.98S
KIRKSVILLE     LGT RAIN  47  45  93 N3        29.95S FOG
OTTUMWA        LGT RAIN  37  35  92 W3        29.96F FOG
ST LOUIS       MOCLDY    53  40  61 S10       30.04S
$$


CITY           SKY/WX    TMP DP  RH WIND       PRES   REMARKS
TERRE HAUTE    CLOUDY    49  41  74 S10       30.12R
EVANSVILLE     MOCLDY    50  38  63 S9        30.17R
INDIANAPOLIS   CLOUDY    45  39  79 SE10      30.12R
LAFAYETTE      CLOUDY    47  41  80 S10       30.08S
MADISON        CLOUDY    32  30  92 CALM      29.99F
MILWAUKEE      MOCLDY    39  34  82 CALM      30.01R
$$




USA.gov is the U.S. government's official web portal to all federal, state and local government web resources and services.